Volver al catálogo

STARLINK-34464

ActivoComunicacionesVLEO
NORAD 64664·PAYLOAD·🇺🇸 United States

Lanzado Jun 28, 2025 desde Cape Canaveral Space Force Station

Loading…

Próximos Pases (próximas 24 horas)

TLE

ActualizadoSource: CelesTrak SupGP

Época: Sep 14, 2026, 22:43 UTC

1 64664C 25139A   26257.94701389  .00017846  00000+0  52750-3 0  2573
2 64664  53.1598 323.8689 0001369  97.0828  59.4305 15.34368213    14

Sigue STARLINK-34464 en tiempo real con AllMySat

Download on the App Store